Printer-friendly version

IAU Minor Planet Center

Minor Planet Center

MPEC 2006-T25 : 2006 SU49

The following Minor Planet Electronic Circular may be linked-to from your own Web pages, but must not otherwise be redistributed electronically.


Read MPEC 2006-T24 Read MPEC 2006-T26


M.P.E.C. 2006-T25                                Issued 2006 Oct. 4, 03:39 UT

     The Minor Planet Electronic Circulars contain information on unusual
         minor planets and routine data on comets.  They are published
   on behalf of Commission 20 of the International Astronomical Union by the
          Minor Planet Center, Smithsonian Astrophysical Observatory,
                          Cambridge, MA 02138, U.S.A.

             Prepared using the Tamkin Foundation Computer Network

                              MPC@CFA.HARVARD.EDU
          URL http://cfa-www.harvard.edu/iau/mpc.html  ISSN 1523-6714

                                   2006 SU49

                           Revision to MPEC 2006-S37

Additional Observations:
     K06S49U  C2001 10 21.19939 23 25 44.64 +02 33 09.0          19.9 R ET025644
     K06S49U  C2001 10 21.22441 23 25 42.66 +02 32 55.0          19.7 R ET025644
     K06S49U  C2001 10 21.24532 23 25 41.03 +02 32 43.8          20.3 R ET025644
     K06S49U  C2001 10 23.09119 23 23 31.09 +02 16 28.3          20.0 R ET025644
     K06S49U  C2001 10 23.11160 23 23 29.62 +02 16 17.2          20.0 R ET025644
     K06S49U  C2001 10 23.13427 23 23 28.02 +02 16 05.9          19.9 R ET025644
     K06S49U  C2001 10 24.10564 23 22 23.96 +02 07 53.7                 ET025644
     K06S49U  C2001 10 24.12819 23 22 22.41 +02 07 42.5          20.4 R ET025644
     K06S49U  C2001 10 24.14998 23 22 20.93 +02 07 31.9          20.5 R ET025644

Observer details:
644 Palomar Mountain/NEAT.  Observers E. F. Helin, S. Pravdo, K. Lawrence,
    K. Kuluhiwa, M. Hicks.  Measurer R. Matson.  1.2-m Schmidt + CCD.

Orbital elements:
2006 SU49 = 2001 UV17                               PHA, Earth MOID = 0.0004 AU
Epoch 2006 Sept. 22.0 TT = JDT 2454000.5                MPC
M 239.34107              (2000.0)            P               Q
n   0.58693905     Peri.  198.82459     -0.78837075     -0.61410134
a   1.4127784      Node   303.23322     +0.56992576     -0.70655030
e   0.3119263      Incl.    2.51865     +0.23163804     -0.35166208
P   1.68           H   19.6           G   0.15           U   6
Residuals in seconds of arc
011019 644  0.1+  0.0     060922 246  0.9-  0.1+    060927 291  0.2+  0.3+
011019 644  0.3-  0.3-    060922 246  0.1+  0.4-    060927 291  0.1+  0.4+
011019 644  0.4-  0.1+    060922 246  0.6-  0.4+    060927 291  0.2+  0.3+
011019 046  0.1-  0.8+    060923 J95  1.0-  1.1-    060927 291  0.2-  0.2+
011019 046  1.4-  0.3-    060923 J95  0.3-  1.0-    060927 291  0.0   0.1+
011019 046  0.7+  0.2+    060923 J95  0.7+  0.5-    060927 291  0.2-  0.2+
011021 644  0.6+  0.4+    060923 291  0.3+  0.5+    060928 291  0.4+  0.1+
011021 644  0.4+  0.0     060923 291  0.2+  0.6+    060928 291  0.1-  0.2+
011021 644  0.5+  0.1+    060923 291  0.1+  0.5+    060928 291  0.4+  0.0
011023 644  0.2+  0.2+    060924 682  0.6-  0.8-    060928 291  0.2+  0.0
011023 644  0.1-  0.4-    060924 682  0.7-  1.0-    060928 291  0.1+  0.1+
011023 644  0.3+  0.1-    060924 291  0.2-  0.2+    060928 291  0.0   0.1+
011024 644  0.2-  0.3-    060924 291  0.1-  0.2+    060929 291  0.3-  0.3-
011024 644  0.3-  0.3-    060924 682  0.5-  0.1+    060929 291  0.0   0.1+
011024 644  0.1-  0.0     060924 291  0.2+  0.0     060929 291  0.9+  0.2+
060920 691  0.0   0.1+    060924 246  0.7-  0.1-    060930 291  0.1+  0.2+
060920 691  0.1-  0.3+    060924 246  0.4-  1.1-    060930 291  0.1+  0.0
060920 691  0.2-  0.1+    060924 246  0.0   0.3-    060930 291  0.0   0.1+
060920 J95  0.7-  0.3+    060924 246  0.0   1.8-    061001 715  0.6+  0.1-
060920 J95  0.1+  0.4-    060925 291  0.1-  0.6+    061001 291  0.7-  0.2+
060921 673  0.5-  0.6+    060925 291  0.9+  0.9+    061001 291  1.1-  1.4-
060921 673  0.2+  0.8+    060926 715  0.4+  0.0     061001 291  0.5-  0.2+
060921 673  0.1+  0.4+    060926 715  0.3+  0.1-    061001 715  0.3-  1.0-
060921 673  1.1+  0.7+    060926 715  0.4+  0.2-    061001 715  0.2+  0.7-
060922 711  0.1+  0.3+    060926 715  0.0   0.2-    061001 715  0.5+  0.8-
060922 711  0.2+  0.4+    060926 291  0.1+  0.3+    061002 291  0.3+  0.0
060922 711  0.0   0.6-    060926 291  0.1-  0.4+    061002 291  0.4+  0.1-
060922 J95  0.4-  0.3-    060926 291  0.2-  0.3+    061002 291  1.2-  0.1-
060922 J95  1.3+  0.2+    060926 649  0.2-  1.1-    061003 291  0.1-  0.2+
060922 J95  0.0   0.9-    060926 649  0.4-  0.1+    061003 291  1.0+  0.2+
060922 246  0.6-  0.3-    060926 649  0.1-  1.3-    061003 291  0.0   0.1-

Ephemeris:
2006 SU49                a,e,i = 1.41, 0.31, 3                   q = 0.9721
Date    TT    R. A. (2000) Decl.     Delta      r     Elong.  Phase     V
2006 10 02    23 10.80   +00 09.7    0.714    1.689   159.6    11.9    20.7
2006 10 12    22 56.61   -01 20.8    0.733    1.658   146.1    19.6    21.0
2006 10 22    22 47.12   -02 29.7    0.769    1.625   133.7    26.3    21.3
2006 11 01    22 43.04   -03 10.1    0.816    1.589   122.6    31.8    21.5
2006 11 11    22 44.19   -03 21.0    0.870    1.551   112.8    36.0    21.7
2006 11 21    22 49.96   -03 04.3    0.926    1.511   104.2    39.3    21.9
2006 12 01    22 59.68   -02 22.2    0.981    1.469    96.6    41.8    22.0

Gareth V. Williams           (C) Copyright 2006 MPC           M.P.E.C. 2006-T25

Read MPEC 2006-T24 Read MPEC 2006-T26


Our Web policy. Index to the CBAT/MPC/ICQ pages.


Valid HTML 4.01!